Change the Weather History Date:

Saturday, May 11, 2013

  Actual Average Record
Temperature  
Mean Temperature 48 °F -  
Max Temperature 55 °F 68 °F 89 °F (2000)
Min Temperature 39 °F 47 °F 37 °F (2008)
Degree Days  
Heating Degree Days 17    
Moisture  
Dew Point 26 °F    
Average Humidity 42    
Maximum Humidity 76    
Minimum Humidity 24    
Precipitation  
Precipitation 0.00 in - - ()
Sea Level Pressure  
Sea Level Pressure 30.16 in    
Wind  
Wind Speed 17 mph (NNW)    
Max Wind Speed 31 mph    
Max Gust Speed 43 mph    
Visibility 10 miles    
Events      
Averages and records for this station are not official NWS values.
T = Trace of Precipitation, MM = Missing Value Source: NWS Daily Summary

Daily Weather History Graph

Daily Weather History Graph

Search for Another Location

Airport or City:

Trip Planner

Search our weather history database for the weather conditions in past years. The results will help you decide how hot, cold, wet, or windy it might be!

Date:

Astronomy

May. 11, 2013 Rise Set
Actual Time 6:02 AM CDT 8:32 PM CDT
Civil Twilight 5:30 AM CDT 9:04 PM CDT
Nautical Twilight 4:51 AM CDT 9:44 PM CDT
Astronomical Twilight 4:06 AM CDT 10:29 PM CDT
Moon 7:10 AM CDT (5/11) 10:14 PM CDT (5/11)
Length of Visible Light 15h 33m
Length of Day
14h 29m
Waxing Crescent, 3% of the Moon is Illuminated
May 11
Waxing Crescent
May 17
First Quarter
May 24
Full
May 31
Last Quarter
Jun 8
New

Hourly Weather History & Observations

Time (CDT) Temp. Windchill Dew Point Humidity Pressure Visibility Wind Dir Wind Speed Gust Speed Precip Events Conditions
12:15 AM 53.6 °F - 42.8 °F 67% 29.98 in 10.0 mi West 6.9 mph - N/A   Partly Cloudy
12:35 AM 53.6 °F - 44.6 °F 72% 29.99 in 10.0 mi West 8.1 mph - N/A   Clear
12:55 AM 51.8 °F - 44.6 °F 76% 29.99 in 10.0 mi West 9.2 mph - N/A   Scattered Clouds
1:15 AM 51.8 °F - 44.6 °F 76% 30.01 in 10.0 mi NW 12.7 mph - N/A   Mostly Cloudy
1:35 AM 55.4 °F - 42.8 °F 63% 30.02 in 10.0 mi North 23.0 mph 29.9 mph N/A   Mostly Cloudy
1:55 AM 53.6 °F - 37.4 °F 54% 30.03 in 10.0 mi North 23.0 mph 35.7 mph N/A   Overcast
2:15 AM 53.6 °F - 33.8 °F 47% 30.04 in 10.0 mi North 25.3 mph 33.4 mph N/A   Overcast
2:35 AM 51.8 °F - 32.0 °F 47% 30.05 in 10.0 mi North 20.7 mph - N/A   Overcast
2:55 AM 50.0 °F - 30.2 °F 47% 30.06 in 10.0 mi North 18.4 mph 24.2 mph N/A   Overcast
3:15 AM 48.2 °F - 30.2 °F 50% 30.06 in 10.0 mi North 18.4 mph - N/A   Mostly Cloudy
3:35 AM 48.2 °F - 28.4 °F 46% 30.07 in 10.0 mi North 18.4 mph 25.3 mph N/A   Scattered Clouds
3:55 AM 46.4 °F 39.2 °F 26.6 °F 46% 30.07 in 10.0 mi North 18.4 mph 24.2 mph N/A   Clear
4:15 AM 46.4 °F 39.0 °F 24.8 °F 43% 30.08 in 10.0 mi North 19.6 mph - N/A   Clear
4:35 AM 46.4 °F 40.1 °F 24.8 °F 43% 30.08 in 10.0 mi North 15.0 mph 21.9 mph N/A   Clear
4:55 AM 44.6 °F 37.4 °F 24.8 °F 46% 30.09 in 10.0 mi North 16.1 mph 23.0 mph N/A   Clear
5:15 AM 44.6 °F 37.4 °F 24.8 °F 46% 30.09 in 10.0 mi North 16.1 mph 21.9 mph N/A   Clear
5:35 AM 42.8 °F 35.4 °F 24.8 °F 49% 30.10 in 10.0 mi NNW 15.0 mph - N/A   Clear
5:55 AM 42.8 °F 35.8 °F 26.6 °F 53% 30.11 in 10.0 mi NNW 13.8 mph - N/A   Clear
6:15 AM 41.0 °F 33.1 °F 26.6 °F 57% 30.13 in 10.0 mi NW 15.0 mph - N/A   Clear
6:35 AM 41.0 °F 33.5 °F 28.4 °F 61% 30.14 in 10.0 mi NW 13.8 mph - N/A   Clear
6:55 AM 41.0 °F 33.9 °F 28.4 °F 61% 30.15 in 10.0 mi NW 12.7 mph - N/A   Clear
7:15 AM 42.8 °F 36.6 °F 30.2 °F 61% 30.16 in 10.0 mi NW 11.5 mph 17.3 mph N/A   Clear
7:35 AM 42.8 °F 35.1 °F 30.2 °F 61% 30.17 in 10.0 mi NW 16.1 mph - N/A   Clear
7:55 AM 44.6 °F 37.4 °F 32.0 °F 61% 30.18 in 10.0 mi NNW 16.1 mph - N/A   Clear
8:15 AM 44.6 °F 37.4 °F 32.0 °F 61% 30.18 in 10.0 mi NNW 16.1 mph 24.2 mph N/A   Clear
8:35 AM 46.4 °F 39.5 °F 32.0 °F 57% 30.18 in 10.0 mi North 17.3 mph 25.3 mph N/A   Clear
8:55 AM 46.4 °F 38.5 °F 32.0 °F 57% 30.18 in 10.0 mi North 21.9 mph 28.8 mph N/A   Clear
9:15 AM 48.2 °F - 32.0 °F 54% 30.19 in 10.0 mi NNW 19.6 mph 26.5 mph N/A   Clear
9:35 AM 50.0 °F - 32.0 °F 50% 30.20 in 10.0 mi NNW 21.9 mph - N/A   Clear
9:55 AM 50.0 °F - 30.2 °F 47% 30.20 in 10.0 mi North 19.6 mph 28.8 mph N/A   Partly Cloudy
10:15 AM 51.8 °F - 30.2 °F 44% 30.20 in 10.0 mi NW 23.0 mph 29.9 mph N/A   Scattered Clouds
10:35 AM 51.8 °F - 30.2 °F 44% 30.20 in 10.0 mi North 26.5 mph 38.0 mph N/A   Mostly Cloudy
10:55 AM 50.0 °F - 28.4 °F 43% 30.21 in 10.0 mi NNW 26.5 mph 35.7 mph N/A   Mostly Cloudy
11:15 AM 50.0 °F - 26.6 °F 40% 30.21 in 10.0 mi NNW 27.6 mph 38.0 mph N/A   Mostly Cloudy
11:35 AM 51.8 °F - 26.6 °F 38% 30.20 in 10.0 mi North 31.1 mph 41.4 mph N/A   Mostly Cloudy
11:55 AM 50.0 °F - 24.8 °F 37% 30.21 in 10.0 mi NNW 27.6 mph 41.4 mph N/A   Scattered Clouds
12:15 PM 51.8 °F - 24.8 °F 35% 30.22 in 10.0 mi NNW 23.0 mph 33.4 mph N/A   Scattered Clouds
12:35 PM 51.8 °F - 19.4 °F 28% 30.22 in 10.0 mi NNW 26.5 mph 42.6 mph N/A   Partly Cloudy
12:55 PM 51.8 °F - 23.0 °F 33% 30.21 in 10.0 mi NNW 25.3 mph 32.2 mph N/A   Partly Cloudy
1:15 PM 51.8 °F - 21.2 °F 30% 30.22 in 10.0 mi NNW 26.5 mph 35.7 mph N/A   Partly Cloudy
1:35 PM 51.8 °F - 23.0 °F 33% 30.21 in 10.0 mi NNW 26.5 mph 36.8 mph N/A   Clear
1:55 PM 53.6 °F - 19.4 °F 26% 30.22 in 10.0 mi NNW 27.6 mph 42.6 mph N/A   Clear
2:15 PM 53.6 °F - 23.0 °F 30% 30.21 in 10.0 mi NW 26.5 mph 39.1 mph N/A   Clear
2:35 PM 53.6 °F - 21.2 °F 28% 30.22 in 10.0 mi NNW 25.3 mph 36.8 mph N/A   Partly Cloudy
2:55 PM 53.6 °F - 21.2 °F 28% 30.21 in 10.0 mi NNW 31.1 mph 38.0 mph N/A   Clear
3:15 PM 55.4 °F - 21.2 °F 26% 30.21 in 10.0 mi NW 26.5 mph 34.5 mph N/A   Clear
3:35 PM 55.4 °F - 19.4 °F 25% 30.21 in 10.0 mi NNW 24.2 mph 35.7 mph N/A   Clear
3:55 PM 53.6 °F - 19.4 °F 26% 30.20 in 10.0 mi NNW 27.6 mph 38.0 mph N/A   Clear
4:15 PM 55.4 °F - 19.4 °F 25% 30.20 in 10.0 mi NW 27.6 mph 36.8 mph N/A   Clear
4:35 PM 55.4 °F - 19.4 °F 25% 30.19 in 10.0 mi NNW 25.3 mph 38.0 mph N/A   Clear
4:55 PM 55.4 °F - 19.4 °F 25% 30.19 in 10.0 mi NNW 27.6 mph 35.7 mph N/A   Clear
5:15 PM 53.6 °F - 17.6 °F 24% 30.19 in 10.0 mi NNW 26.5 mph 35.7 mph N/A   Clear
5:35 PM 53.6 °F - 17.6 °F 24% 30.19 in 10.0 mi NW 23.0 mph 34.5 mph N/A   Clear
5:55 PM 53.6 °F - 17.6 °F 24% 30.19 in 10.0 mi North 24.2 mph 29.9 mph N/A   Clear
6:15 PM 53.6 °F - 17.6 °F 24% 30.19 in 10.0 mi NNW 24.2 mph 32.2 mph N/A   Clear
6:35 PM 53.6 °F - 17.6 °F 24% 30.19 in 10.0 mi NNW 20.7 mph 33.4 mph N/A   Clear
6:55 PM 53.6 °F - 17.6 °F 24% 30.19 in 10.0 mi NNW 23.0 mph 29.9 mph N/A   Clear
7:15 PM 51.8 °F - 17.6 °F 26% 30.19 in 10.0 mi NNW 19.6 mph 33.4 mph N/A   Clear
7:35 PM 51.8 °F - 17.6 °F 26% 30.19 in 10.0 mi NNW 16.1 mph 23.0 mph N/A   Clear
7:55 PM 50.0 °F - 17.6 °F 28% 30.19 in 10.0 mi NNW 17.3 mph 25.3 mph N/A   Clear
8:15 PM 48.2 °F - 17.6 °F 30% 30.19 in 10.0 mi NNW 11.5 mph 18.4 mph N/A   Clear
8:35 PM 46.4 °F 41.1 °F 19.4 °F 34% 30.20 in 10.0 mi NNW 11.5 mph - N/A   Clear
8:55 PM 44.6 °F 39.7 °F 19.4 °F 37% 30.20 in 10.0 mi NNW 9.2 mph - N/A   Clear
9:15 PM 44.6 °F 40.7 °F 19.4 °F 37% 30.21 in 10.0 mi NW 6.9 mph - N/A   Clear
9:35 PM 44.6 °F 40.2 °F 19.4 °F 37% 30.21 in 10.0 mi NNW 8.1 mph - N/A   Clear
9:55 PM 42.8 °F 38.0 °F 21.2 °F 42% 30.21 in 10.0 mi NW 8.1 mph - N/A   Clear
10:15 PM 41.0 °F 35.8 °F 21.2 °F 45% 30.22 in 10.0 mi NNW 8.1 mph - N/A   Clear
10:35 PM 41.0 °F 35.8 °F 21.2 °F 45% 30.22 in - NW 8.1 mph - N/A   Clear
10:55 PM 42.8 °F 38.0 °F 21.2 °F 42% 30.22 in 10.0 mi NW 8.1 mph - N/A   Clear
11:15 PM 41.0 °F 34.7 °F 21.2 °F 45% 30.22 in 10.0 mi NNW 10.4 mph - N/A   Clear
11:35 PM 41.0 °F 35.2 °F 21.2 °F 45% 30.22 in 10.0 mi NNW 9.2 mph - N/A   Clear
11:55 PM 39.2 °F 33.0 °F 21.2 °F 49% 30.22 in 10.0 mi NNW 9.2 mph - N/A   Clear